Laconia, NH

7:53 PM EST on November 16, 2019 (GMT -0500)
Laconia Municipal

Weather History for KLCI - September, 2019

Change the Weather History Date:

Friday, September 13, 2019

  Actual Average Record
Temperature  
Mean Temperature 55 °F -  
Max Temperature 66 °F 71 °F 82 °F (2012)
Min Temperature 44 °F 51 °F 38 °F (1985)
Degree Days  
Heating Degree Days 10    
Growing Degree Days 5 (Base 50)    
Moisture  
Dew Point 42 °F    
Average Humidity 67    
Maximum Humidity 100    
Minimum Humidity 38    
Precipitation  
Precipitation 0.00 in - - ()
Sea Level Pressure  
Sea Level Pressure 30.48 in    
Wind  
Wind Speed 3 mph ()    
Max Wind Speed 12 mph    
Max Gust Speed -    
Visibility 10.0 miles    
Events      
Averages and records for this station are not official NWS values.
T = Trace of Precipitation, MM = Missing Value Source: Averaged Metar Reports

Daily Weather History Graph

Daily Weather History Graph

Search for Another Location

Airport or City:

Astronomy

Sep. 13, 2019 Rise Set
Actual Time 6:22 AM EDT 6:59 PM EDT
Civil Twilight 5:53 AM EDT 7:28 PM EDT
Nautical Twilight 5:19 AM EDT 8:02 PM EDT
Astronomical Twilight 4:44 AM EDT 8:38 PM EDT
Moon 7:14 PM EDT (9/13) 5:33 AM EDT (9/13)
Length of Visible Light 13h 35m
Length of Day
12h 37m
Full, 100% of the Moon is Illuminated
Sep 13
Full
Sep 14
Full
Sep 21
Last Quarter
Sep 28
New
Oct 5
First Quarter

Hourly Weather History & Observations

Time (EDT) Temp. Dew Point Humidity Pressure Visibility Wind Dir Wind Speed Gust Speed Precip Events Conditions
12:56 AM 46.9 °F 46.9 °F 100% 30.37 in 10.0 mi Calm Calm - N/A   Clear
1:56 AM 46.9 °F 46.0 °F 97% 30.38 in 10.0 mi Calm Calm - N/A   Clear
2:56 AM 46.0 °F 45.0 °F 96% 30.39 in 10.0 mi Calm Calm - N/A   Clear
3:56 AM 45.0 °F 44.1 °F 97% 30.41 in 10.0 mi Calm Calm - N/A   Clear
4:56 AM 45.0 °F 44.1 °F 97% 30.44 in 10.0 mi Calm Calm - N/A   Clear
5:56 AM 44.1 °F 43.0 °F 96% 30.46 in 10.0 mi Calm Calm - N/A   Partly Cloudy
6:56 AM 45.0 °F 44.1 °F 97% 30.48 in 10.0 mi Calm Calm - N/A   Clear
7:56 AM 53.1 °F 46.9 °F 80% 30.50 in 10.0 mi Calm Calm - N/A   Clear
8:56 AM 57.0 °F 44.1 °F 62% 30.53 in 10.0 mi East 10.4 mph - N/A   Clear
9:56 AM 59.0 °F 42.1 °F 53% 30.54 in 10.0 mi ENE 11.5 mph - N/A   Clear
10:56 AM 61.0 °F 41.0 °F 48% 30.55 in 10.0 mi East 9.2 mph - N/A   Clear
11:56 AM 62.1 °F 41.0 °F 46% 30.53 in 10.0 mi ENE 10.4 mph - N/A   Clear
12:56 PM 63.0 °F 39.0 °F 41% 30.53 in 10.0 mi Variable 5.8 mph - N/A   Clear
1:56 PM 64.0 °F 41.0 °F 43% 30.51 in 10.0 mi NE 6.9 mph - N/A   Clear
2:56 PM 66.0 °F 39.9 °F 38% 30.50 in 10.0 mi South 4.6 mph - N/A   Clear
3:56 PM 66.0 °F 41.0 °F 40% 30.49 in 10.0 mi Variable 6.9 mph - N/A   Clear
4:56 PM 64.0 °F 41.0 °F 43% 30.49 in 10.0 mi South 11.5 mph - N/A   Clear
5:56 PM 62.1 °F 41.0 °F 46% 30.49 in 10.0 mi SE 6.9 mph - N/A   Clear
6:56 PM 57.9 °F 42.1 °F 56% 30.49 in 10.0 mi SE 5.8 mph - N/A   Clear
7:56 PM 55.9 °F 39.9 °F 55% 30.47 in 10.0 mi SE 10.4 mph - N/A   Clear
8:56 PM 54.0 °F 39.0 °F 57% 30.47 in 10.0 mi SSE 5.8 mph - N/A   Clear
9:56 PM 53.1 °F 41.0 °F 64% 30.48 in 10.0 mi South 9.2 mph - N/A   Clear
10:56 PM 52.0 °F 42.1 °F 69% 30.46 in 10.0 mi Variable 3.5 mph - N/A   Clear
11:56 PM 46.9 °F 43.0 °F 86% 30.46 in 10.0 mi NW 5.8 mph - N/A   Clear